908  
NZUS99 KDVN 192110  
HRRRRR  
HOURLY WEATHER ROUNDUP  
NATIONAL WEATHER SERVICE QUAD CITIES IA IL  
400 PM CDT FRI JUL 19 2019  
 
NOTE: "FAIR" INDICATES FEW OR NO CLOUDS BELOW 12,000 FEET WITH  
NO SIGNIFICANT WEATHER AND/OR OBSTRUCTIONS TO VISIBILITY.  
------------------------------------------------------------------  
 
CITY SKY/WX TMP DP RH WIND PRES REMARKS  
BURLINGTON SUNNY 93 79 63 S16G25 29.81F HX 110  
CEDAR RAPIDS FAIR 92 80 68 S14 29.76F HX 110  
DAVENPORT FAIR 94 77 57 SW12 29.81F HX 108  
DUBUQUE FAIR 91 79 67 S14 29.79F HX 107  
IOWA CITY FAIR 97 78 54 S14 29.78F HX 114  
MOLINE FAIR 95 78 58 S13 29.79F HX 111  
------------------------------------------------------------------  
THE STATIONS BELOW ARE NOT NWS STATIONS AND ARE NOT SUBJECT TO NWS  
QUALITY CONTROL. SOME STATIONS DO NOT REPORT WEATHER SUCH AS FOG.  
* - STATIONS THAT REPORT TMP AND DP IN WHOLE DEGREES CELSIUS, WHICH  
ARE THEN CONVERTED TO FAHRENHEIT.  
------------------------------------------------------------------  
 
CITY SKY/WX TMP DP RH WIND PRES REMARKS  
CLINTON FAIR 94 80 64 SW14 29.80F HX 113  
FAIRFIELD * SUNNY 95 79 59 S14 29.79F HX 112  
FORT MADISON * SUNNY 93 81 66 S13 29.82F HX 113  
FREEPORT FAIR 91 79 69 S12 29.82F HX 107  
INDEPENDENCE FAIR 94 81 65 S12 29.75F HX 115  
KEOKUK * SUNNY 93 79 62 S14 29.82F HX 110  
MACOMB SUNNY 91 80 69 SW12G17 29.85F HX 110  
MONTICELLO * FAIR 91 82 75 S13 29.77F HX 114  
MT PLEASANT * SUNNY 95 81 63 S15 29.80F HX 115  
MUSCATINE * FAIR 97 79 56 S15G21 29.78F HX 115  
SAVANNA * FAIR 95 79 59 SW12 29.78F HX 112  
STERLING/R.F. FAIR 94 81 66 VRB6 29.80F HX 115  
VINTON FAIR 96 80 58 S10G20 29.75F HX 115  
WASHINGTON * SUNNY 93 -20 1 S13G18 29.77F HX 86  
------------------------------------------------------------------  
 
 
CLICK HERE TO GO TO PREVIOUS BULLETINS.

The Nexlab IL Page
The Nexlab IA Page
The Nexlab MO Page Main Text Page